This demonstration page uses our WeatherBlox Daily Observations layout. Learn more.

Left ArrowRight Arrow

Hourly Observations for August 6, 2022

Temp ( °F °C ) Dew Point ( °F °C ) Humidity (%) Winds ( mph kmh ) Pressure ( in mb ) Visibility ( mi km ) Precip ( " mm )
12:52 am 00:52 Clear 80 26.7 72 22.2 76 76 SSE 10 17 29.98 1015 10 16 0.00 0.00
1:52 am 01:52 Clear 79 26.1 73 22.8 82 82 SSE 10 17 30.00 1016 10 16 0.00 0.00
2:52 am 02:52 Partly Cloudy 78 25.6 73 22.8 85 85 SSE 9 15 29.99 1016 10 16 0.00 0.00
3:52 am 03:52 Clear 77 25 73 22.8 88 88 SSE 8 13 30.00 1016 10 16 0.00 0.00
4:52 am 04:52 Clear 76 24.4 73 22.8 91 91 SSE 10 17 30.00 1016 10 16 0.00 0.00
5:52 am 05:52 Partly Cloudy 76 24.4 73 22.8 91 91 SSE 9 15 30.01 1016 10 16 0.00 0.00
6:52 am 06:52 Partly Cloudy 76 24.4 73 22.8 91 91 SSE 12 19 30.03 1017 10 16 0.00 0.00
7:52 am 07:52 Mostly Cloudy 78 25.6 73 22.8 85 85 SSE 12 19 30.04 1017 10 16 0.00 0.00
8:52 am 08:52 Sunny 81 27.2 73 22.8 77 77 S 12 19 30.05 1018 10 16 0.00 0.00
9:52 am 09:52 Partly Cloudy 85 29.4 74 23.3 70 70 S 13 20 30.05 1018 10 16 0.00 0.00
10:52 am 10:52 Partly Cloudy 83 28.3 73 22.8 72 72 S 9 15 30.06 1018 10 16 0.00 0.00
11:52 am 11:52 Mostly Sunny 85 29.4 73 22.8 68 68 S 9 15 30.06 1018 10 16 0.00 0.00
12:52 pm 12:52 Partly Cloudy 87 30.6 72 22.2 61 61 S 10 17 30.05 1018 10 16 0.00 0.00
1:52 pm 13:52 Cloudy 87 30.6 73 22.8 63 63 SSW 8 13 30.04 1017 10 16 0.00 0.00
2:52 pm 14:52 Sunny 93 33.9 72 22.2 50 50 S 14 22 30.01 1016 10 16 0.00 0.00
3:52 pm 15:52 Mostly Sunny 94 34.4 71 21.7 48 48 S 8 13 29.98 1015 10 16 0.00 0.00
4:52 pm 16:52 Sunny 94 34.4 69 20.6 44 44 SSE 6 9 29.98 1015 10 16 0.00 0.00
5:47 pm 17:47 Mostly Cloudy 93 34 72 22 49 49 SE 13 20 29.94 1014 10 16 0.00 0.00
5:52 pm 17:52 Mostly Cloudy 92 33.3 71 21.7 51 51 SE 12 19 29.99 1016 10 16 0.00 0.00
6:52 pm 18:52 Partly Cloudy 90 32.2 71 21.7 54 54 S 17 28 29.99 1016 10 16 0.00 0.00
7:52 pm 19:52 Sunny 88 31.1 71 21.7 57 57 S 12 19 30.00 1016 10 16 0.00 0.00
8:52 pm 20:52 Clear 85 29.4 71 21.7 63 63 SSE 13 20 30.02 1017 10 16 0.00 0.00
9:52 pm 21:52 Clear 83 28.3 70 21.1 65 65 S 10 17 30.04 1017 10 16 0.00 0.00
10:52 pm 22:52 Clear 82 27.8 69 20.6 65 65 S 9 15 30.05 1018 10 16 0.00 0.00
11:52 pm 23:52 Clear 80 26.7 70 21.1 71 71 SSE 10 17 30.05 1018 10 16 0.00 0.00

Powered by AerisWeather